Oak Ridge, TN

4:14 PM EST on November 17, 2019 (GMT -0500)
Oak Ridge

Weather History for KOQT - September, 2019

Change the Weather History Date:

Monday, September 23, 2019

  Actual Average (KTYS) Record (KTYS)
Temperature  
Mean Temperature 71 °F -  
Max Temperature 82 °F 77 °F 96 °F (1931)
Min Temperature 60 °F 57 °F 40 °F (1999)
Cooling Degree Days 6    
Growing Degree Days 21 (Base 50)    
Moisture  
Dew Point 60 °F    
Average Humidity 70    
Maximum Humidity 87    
Minimum Humidity 47    
Precipitation  
Precipitation 0.00 in - - ()
Sea Level Pressure  
Sea Level Pressure 30.06 in    
Wind  
Wind Speed 1 mph ()    
Max Wind Speed 6 mph    
Max Gust Speed -    
Visibility 10.0 miles    
Events      
Averages and records for this station are not official NWS values.
T = Trace of Precipitation, MM = Missing Value Source: Averaged Metar Reports

Daily Weather History Graph

Daily Weather History Graph

Search for Another Location

Airport or City:

Astronomy

Sep. 23, 2019 Rise Set
Actual Time 7:25 AM EDT 7:32 PM EDT
Civil Twilight 6:59 AM EDT 7:58 PM EDT
Nautical Twilight 6:29 AM EDT 8:27 PM EDT
Astronomical Twilight 5:59 AM EDT 8:58 PM EDT
Moon 1:19 AM EDT (9/23) 4:13 PM EDT (9/23)
Length of Visible Light 12h 58m
Length of Day
12h 07m
Waning Crescent, 33% of the Moon is Illuminated
Sep 23
Waning Crescent
Sep 28
New
Oct 5
First Quarter
Oct 13
Full
Oct 21
Last Quarter

Hourly Weather History & Observations

Time (EDT) Temp. Heat Index Dew Point Humidity Pressure Visibility Wind Dir Wind Speed Gust Speed Precip Events Conditions
12:53 AM 66.0 °F - 57.9 °F 75% 30.09 in 10.0 mi Calm Calm - N/A   Clear
1:53 AM 64.9 °F - 57.9 °F 78% 30.09 in 10.0 mi Calm Calm - N/A   Clear
2:53 AM 63.0 °F - 57.9 °F 84% 30.09 in 10.0 mi Calm Calm - N/A   Clear
3:53 AM 62.1 °F - 57.0 °F 84% 30.08 in 10.0 mi Calm Calm - N/A   Clear
4:53 AM 62.1 °F - 57.0 °F 84% 30.08 in 10.0 mi Calm Calm - N/A   Clear
5:53 AM 61.0 °F - 57.0 °F 87% 30.07 in 10.0 mi Calm Calm - N/A   Clear
6:53 AM 61.0 °F - 57.0 °F 87% 30.09 in 10.0 mi Calm Calm - N/A   Clear
7:35 AM 60.1 °F - 55.9 °F 86% 30.13 in 10.0 mi Calm Calm - N/A   Partly Cloudy
7:53 AM 62.1 °F - 57.0 °F 84% 30.10 in 10.0 mi Calm Calm - N/A   Scattered Clouds
8:53 AM 64.9 °F - 57.0 °F 75% 30.10 in 10.0 mi Calm Calm - N/A   Scattered Clouds
9:53 AM 73.0 °F - 57.0 °F 57% 30.09 in 10.0 mi West 3.5 mph - N/A   Clear
10:53 AM 73.9 °F - 57.0 °F 55% 30.09 in 10.0 mi WSW 5.8 mph - N/A   Overcast
11:53 AM 75.9 °F - 57.9 °F 54% 30.09 in 10.0 mi Calm Calm - N/A   Overcast
12:53 PM 75.9 °F - 57.9 °F 54% 30.08 in 10.0 mi SSW 5.8 mph - N/A   Overcast
1:53 PM 80.1 °F 80.6 °F 57.9 °F 47% 30.05 in 10.0 mi Variable 4.6 mph - N/A   Overcast
2:53 PM 82.0 °F 82.7 °F 61.0 °F 49% 30.02 in 10.0 mi Variable 4.6 mph - N/A   Overcast
3:53 PM 81.0 °F 81.7 °F 61.0 °F 50% 30.02 in 10.0 mi Variable 4.6 mph - N/A   Overcast
4:53 PM 80.1 °F 81.7 °F 64.0 °F 58% 30.01 in 10.0 mi Calm Calm - 0.00 in   Overcast
5:53 PM 79.0 °F - 64.9 °F 62% 30.00 in - Variable 3.5 mph - 0.00 in   Overcast
6:53 PM 79.0 °F - 64.0 °F 60% 30.00 in - Calm Calm - N/A   Overcast
7:53 PM 77.0 °F - 64.9 °F 66% 29.99 in - Calm Calm - N/A   Partly Cloudy
8:00 PM - - - N/A% - - North - - N/A   Unknown
9:53 PM 73.0 °F - 64.9 °F 76% 29.99 in - Calm Calm - N/A   Clear
10:53 PM 71.1 °F - 66.0 °F 84% 29.99 in - Calm Calm - N/A   Overcast
11:53 PM 71.1 °F - 66.0 °F 84% 29.99 in - Calm Calm - N/A   Overcast